Regional Weather Roundup
Issued by NWS

Home | Current Version | Previous Version | Text Only | Print | Product List | Glossary On
Versions: 1 2 3 4 5 6 7 8 9 10 11 12 13 14 15 16 17 18 19 20 21 22 23 24 25 26 27 28 29 30 31 32 33 34 35 36 37 38 39 40 41 42 43 44 45 46 47 48 49 50
000
ASUS42 KFFC 191403
RWRGA
WEATHER ROUNDUP FOR GEORGIA
NATIONAL WEATHER SERVICE PEACHTREE CITY GA
1000 AM EDT FRI SEP 19 2014

NOTE: "FAIR" INDICATES FEW OR NO CLOUDS BELOW 12,000 FEET WITH NO
SIGNIFICANT WEATHER AND/OR OBSTRUCTIONS TO VISIBILITY.

* = USE WITH CAUTION. THE STATIONS MARKED WITH AN ASTERISK MAY NOT
REPORT WEATHER SUCH AS PRECIPITATION, FOG, OR THUNDER AND ARE NOT
QUALITY CONTROLLED BY NWS.

THE REMARK "TC" DENOTES TEMPERATURE READING IN DEGREES CELSIUS.

GAZ001>058-191500-
NORTH GEORGIA

CITY           SKY/WX    TMP DP  RH WIND       PRES   REMARKS
ATLANTA        MOSUNNY   74  66  76 E10       30.09R
ATHENS         CLOUDY    70  66  87 E9        30.11R
CHAMBLEE       SUNNY     73  65  75 E6        30.10R
PEACHTREE CITY MOSUNNY   76  67  73 VRB5      30.08R
ROME           MOSUNNY   69  62  78 NE3       30.08S
WEST ATLANTA   MOSUNNY   74  66  76 NE7       30.09R
GAINESVILLE    MOSUNNY   70  65  84 E12       30.14R
CARTERSVILLE   PTSUNNY   73  66  78 NE5       30.09R


CITY           SKY/WX    TMP DP  RH WIND       PRES   REMARKS
DALTON*        SUNNY     66  63  88 CALM      30.10S
LAWRENCEVILLE* MOSUNNY   72  61  68 NE8       30.10R
MARIETTA       MOSUNNY   73  67  82 E8        30.10R
KENNESAW*      SUNNY     72  64  78 SE9       30.11R
$$

GAZ059>098-102>109-191500-
CENTRAL GEORGIA

CITY           SKY/WX    TMP DP  RH WIND       PRES   REMARKS
AUGUSTA-BUSH   CLOUDY    70  66  87 N6        30.10R
AUGUSTA-DANIEL LGT RAIN  70  64  81 N8        30.11R
COLUMBUS       MOSUNNY   75  66  73 E8        30.03S
MACON          PTSUNNY   73  70  90 CALM      30.06R
ROBINS AFB     PTSUNNY   72  69  92 CALM      30.06R


CITY           SKY/WX    TMP DP  RH WIND       PRES   REMARKS
LAGRANGE*      MOSUNNY   76  70  81 CALM      30.06S
SYLVANIA*      CLOUDY    75  74  94 E5        30.07R
MILLEDGEVILLE* PTSUNNY   72  70  94 E3        30.08R
$$

GAZ099>101-110>166-191500-
SOUTH GEORGIA

CITY           SKY/WX    TMP DP  RH WIND       PRES   REMARKS
SAVANNAH       CLOUDY    80  71  74 E8        30.04R
VALDOSTA       CLOUDY    76  71  85 E3        30.00R
ALMA           MOSUNNY   79  72  79 E7        30.03R
ST SIMONS      PTSUNNY   78  72  81 NE5       30.01S
FT STEWART     PTSUNNY   77  71  81 VRB3      30.03R
ALBANY         MOSUNNY   77  71  82 NE7       30.04R
HUNTER AFB     PTSUNNY   80  74  81 NE8       30.02R
MOODY AFB      CLOUDY    74  73  95 E7        30.01R
BRUNSWICK      PTSUNNY   79  73  83 CALM      30.03R


CITY           SKY/WX    TMP DP  RH WIND       PRES   REMARKS
BAINBRIDGE*    CLOUDY    79  73  83 E5        30.00R
MOULTRIE*      MOSUNNY   73  72  94 NE5       30.02R FOG
VIDALIA*       CLOUDY    79  72  78 E7        30.05R
WAYCROSS*      MOSUNNY   80  76  88 E6        30.02R
DOUGLAS*       MOSUNNY   79  73  83 E5        30.04R
$$


USA.gov is the U.S. government's official web portal to all federal, state and local government web resources and services.